TimeCDT,TemperatureF,Dew PointF,Humidity,Sea Level PressureIn,VisibilityMPH,Wind Direction,Wind SpeedMPH,Gust SpeedMPH,PrecipitationIn,Events,Conditions,WindDirDegrees,DateUTC
12:56 AM,59.0,57.0,93,30.01,-9999.0,Calm,Calm,-,N/A,,Unknown,0,2013-07-24 05:56:00
1:56 AM,59.0,57.0,93,30.01,-9999.0,NNW,3.5,-,N/A,,Unknown,340,2013-07-24 06:56:00
2:56 AM,59.0,57.0,93,30.01,-9999.0,Calm,Calm,-,N/A,,Unknown,0,2013-07-24 07:56:00
3:56 AM,57.0,55.0,93,30.02,-9999.0,NNW,3.5,-,N/A,,Unknown,330,2013-07-24 08:56:00
4:56 AM,55.0,54.0,96,30.03,-9999.0,Calm,Calm,-,N/A,,Unknown,0,2013-07-24 09:56:00
5:56 AM,54.0,53.1,97,30.03,-9999.0,Calm,Calm,-,N/A,,Unknown,0,2013-07-24 10:56:00
6:56 AM,55.0,54.0,96,30.04,-9999.0,Calm,Calm,-,N/A,,Unknown,0,2013-07-24 11:56:00
7:56 AM,63.0,57.9,84,30.04,-9999.0,Calm,Calm,-,N/A,,Unknown,0,2013-07-24 12:56:00
8:56 AM,68.0,57.0,68,30.04,-9999.0,Calm,Calm,-,N/A,,Unknown,0,2013-07-24 13:56:00
9:56 AM,72.0,59.0,64,30.03,-9999.0,Calm,Calm,-,N/A,,Unknown,0,2013-07-24 14:56:00
10:56 AM,75.0,57.9,55,30.02,-9999.0,NW,8.1,-,N/A,,Unknown,310,2013-07-24 15:56:00
11:56 AM,75.9,55.0,48,30.02,-9999.0,WNW,3.5,-,N/A,,Unknown,300,2013-07-24 16:56:00
12:56 PM,77.0,55.9,48,30.00,-9999.0,WNW,5.8,-,N/A,,Unknown,290,2013-07-24 17:56:00
1:56 PM,79.0,57.9,48,29.98,-9999.0,Variable,4.6,-,N/A,,Unknown,0,2013-07-24 18:56:00
2:56 PM,79.0,57.0,47,29.96,-9999.0,West,6.9,-,N/A,,Unknown,270,2013-07-24 19:56:00
3:56 PM,81.0,57.9,45,29.95,-9999.0,West,12.7,-,N/A,,Unknown,260,2013-07-24 20:56:00
4:56 PM,81.0,57.9,45,29.94,-9999.0,West,10.4,-,N/A,,Unknown,260,2013-07-24 21:56:00
5:56 PM,81.0,59.0,47,29.91,-9999.0,West,9.2,-,N/A,,Unknown,270,2013-07-24 22:56:00
6:56 PM,80.1,61.0,52,29.89,-9999.0,WNW,8.1,-,N/A,,Unknown,300,2013-07-24 23:56:00
7:56 PM,78.1,62.1,58,29.89,-9999.0,WSW,5.8,-,N/A,,Unknown,250,2013-07-25 00:56:00
8:56 PM,73.9,63.0,68,29.88,-9999.0,West,4.6,-,N/A,,Unknown,260,2013-07-25 01:56:00
9:56 PM,70.0,62.1,76,29.89,-9999.0,West,5.8,-,N/A,,Unknown,260,2013-07-25 02:56:00
10:56 PM,66.9,61.0,81,29.91,-9999.0,NNW,5.8,-,N/A,,Unknown,340,2013-07-25 03:56:00
11:56 PM,63.0,61.0,93,29.91,-9999.0,Calm,Calm,-,N/A,,Unknown,0,2013-07-25 04:56:00